{"data":{"norad_id":56108,"intl_designator":"2023-046R","name":"STARLINK-6081","alt_names":[],"object_type":"PAYLOAD","status":"ACTIVE","operator":null,"country":"US","launch_date":"2023-03-29","launch_site_code":"AFETR","launch_vehicle":null,"mission":null,"orbit_class":"UNKNOWN","rcs_meters":null,"size_class":null,"mass_kg":null,"dimensions":null,"purposes":["comms"],"wikipedia_slug":null,"has_3d_model":false,"image_url":null,"decayed_at":null,"tle_current":{"epoch":"2026-09-20T00:38:44.565216Z","epoch_age_seconds":149540,"freshness":"FRESH","line1":"1 56108U 23046R   26263.02690469  .00000102  00000+0  13238-4 0  9993","line2":"2 56108  43.0021 143.9646 0000944 252.1741 107.9007 15.27575534191755","mean_motion":15.27575534,"eccentricity":9.44e-5,"inclination_deg":43.0021,"raan_deg":143.9646,"arg_perigee_deg":252.1741,"mean_anomaly_deg":107.9007,"bstar":1.3238e-5,"rev_number":19175,"period_min":94.267024310694,"perigee_km":482.41477165301,"apogee_km":483.71016611273,"semimajor_km":6861.1994688829,"source":"CELESTRAK","updated_at":"2026-09-21T09:00:33.364595Z"}}}